| time (UTC) | temp C | wind direction | speed KPH | gust KPH | rain 1hr cm | rain 24hr cm | rain mn cm | humidity % | barometer mb |
| 20260506185107 | 17 | 157 | 9.7 | 12.9 | 0.00 | 0.00 | 0.00 | 7 | 1006.9 |
| 20260506184610 | 17 | 112 | 12.9 | 19.3 | 0.00 | 0.00 | 0.00 | 7 | 1007.0 |
| 20260506184124 | 17 | 112 | 9.7 | 14.5 | 0.00 | 0.00 | 0.00 | 7 | 1007.0 |
| 20260506183633 | 17 | 90 | 11.3 | 16.1 | 0.00 | 0.00 | 0.00 | 7 | 1007.0 |
| 20260506183205 | 17 | 112 | 11.3 | 17.7 | 0.00 | 0.00 | 0.00 | 7 | 1006.9 |
| 20260506182718 | 17 | 90 | 12.9 | 16.1 | 0.00 | 0.00 | 0.00 | 7 | 1006.9 |
| 20260506182715 | 17 | 90 | 12.9 | 16.1 | 0.00 | 0.00 | 0.00 | 7 | 1006.9 |
| 20260506182429 | 17 | 112 | 9.7 | 14.5 | 0.00 | 0.00 | 0.00 | 7 | 1007.0 |
| 20260506182251 | 17 | 112 | 9.7 | 17.7 | 0.00 | 0.00 | 0.00 | 7 | 1006.9 |
| 20260506181944 | 17 | 112 | 12.9 | 16.1 | 0.00 | 0.00 | 0.00 | 7 | 1007.0 |
| 20260506181459 | 17 | 135 | 12.9 | 16.1 | 0.00 | 0.00 | 0.00 | 7 | 1006.8 |
| 20260506181356 | 17 | 90 | 12.9 | 17.7 | 0.00 | 0.00 | 0.00 | 7 | 1006.8 |
| 20260506181036 | 17 | 67 | 11.3 | 16.1 | 0.00 | 0.00 | 0.00 | 7 | 1006.9 |
| 20260506180605 | 17 | 135 | 9.7 | 16.1 | 0.00 | 0.00 | 0.00 | 7 | 1007.0 |
| 20260506180114 | 17 | 112 | 9.7 | 14.5 | 0.00 | 0.00 | 0.00 | 7 | 1006.9 |
| 20260506175701 | 17 | 90 | 9.7 | 16.1 | 0.00 | 0.00 | 0.00 | 7 | 1007.1 |
| 20260506175412 | 17 | 90 | 14.5 | 19.3 | 0.00 | 0.00 | 0.00 | 7 | 1006.9 |
| 20260506175001 | 17 | 112 | 17.7 | 20.9 | 0.00 | 0.00 | 0.00 | 7 | 1006.9 |
| 20260506174537 | 17 | 90 | 16.1 | 19.3 | 0.00 | 0.00 | 0.00 | 7 | 1006.9 |
| 20260506174426 | 17 | 112 | 12.9 | 17.7 | 0.00 | 0.00 | 0.00 | 7 | 1006.8 |
| 20260506174118 | 17 | 112 | 12.9 | 16.1 | 0.00 | 0.00 | 0.00 | 7 | 1006.9 |
| 20260506173629 | 17 | 67 | 9.7 | 16.1 | 0.00 | 0.00 | 0.00 | 7 | 1007.0 |
| 20260506173137 | 17 | 112 | 12.9 | 16.1 | 0.00 | 0.00 | 0.00 | 7 | 1006.9 |
| 20260506172716 | 17 | 135 | 11.3 | 20.9 | 0.00 | 0.00 | 0.00 | 7 | 1007.0 |
| 20260506172712 | 17 | 135 | 11.3 | 20.9 | 0.00 | 0.00 | 0.00 | 7 | 1007.0 |
| 20260506172357 | 17 | 112 | 14.5 | 19.3 | 0.00 | 0.00 | 0.00 | 7 | 1006.9 |
| 20260506171938 | 18 | 90 | 11.3 | 16.1 | 0.00 | 0.00 | 0.00 | 7 | 1006.9 |
| 20260506171549 | 18 | 112 | 16.1 | 20.9 | 0.00 | 0.00 | 0.00 | 7 | 1006.9 |
| 20260506171519 | 18 | 90 | 17.7 | 24.1 | 0.00 | 0.00 | 0.00 | 7 | 1006.9 |
| 20260506171035 | 18 | 90 | 9.7 | 14.5 | 0.00 | 0.00 | 0.00 | 7 | 1006.8 |
| 20260506170618 | 18 | 112 | 14.5 | 17.7 | 0.00 | 0.00 | 0.00 | 7 | 1006.7 |
| 20260506170153 | 18 | 67 | 12.9 | 17.7 | 0.00 | 0.00 | 0.00 | 7 | 1006.8 |
| 20260506165701 | 18 | 90 | 12.9 | 16.1 | 0.00 | 0.00 | 0.00 | 7 | 1006.9 |
| 20260506165658 | 18 | 90 | 12.9 | 16.1 | 0.00 | 0.00 | 0.00 | 7 | 1006.9 |
| 20260506165453 | 18 | 67 | 14.5 | 19.3 | 0.00 | 0.00 | 0.00 | 7 | 1006.7 |
| 20260506165042 | 18 | 112 | 9.7 | 16.1 | 0.00 | 0.00 | 0.00 | 7 | 1006.7 |
| 20260506164558 | 18 | 90 | 11.3 | 17.7 | 0.00 | 0.00 | 0.00 | 7 | 1006.9 |
| 20260506164107 | 18 | 90 | 12.9 | 20.9 | 0.00 | 0.00 | 0.00 | 7 | 1006.8 |
| 20260506163616 | 18 | 67 | 12.9 | 19.3 | 0.00 | 0.00 | 0.00 | 7 | 1006.6 |
| 20260506163128 | 18 | 90 | 16.1 | 20.9 | 0.00 | 0.00 | 0.00 | 7 | 1006.8 |
| 20260506162716 | 18 | 67 | 19.3 | 29.0 | 0.00 | 0.00 | 0.00 | 7 | 1006.8 |
| 20260506162508 | 18 | 67 | 20.9 | 30.6 | 0.00 | 0.00 | 0.00 | 7 | 1006.7 |
| 20260506162434 | 18 | 67 | 20.9 | 30.6 | 0.00 | 0.00 | 0.00 | 7 | 1006.7 |
| 20260506161938 | 19 | 67 | 17.7 | 24.1 | 0.00 | 0.00 | 0.00 | 6 | 1006.8 |
| 20260506161520 | 19 | 112 | 14.5 | 17.7 | 0.00 | 0.00 | 0.00 | 6 | 1006.7 |
| 20260506161036 | 19 | 90 | 17.7 | 24.1 | 0.00 | 0.00 | 0.00 | 6 | 1006.7 |
| 20260506160654 | 18 | 90 | 19.3 | 24.1 | 0.00 | 0.00 | 0.00 | 6 | 1006.5 |
| 20260506160619 | 18 | 90 | 19.3 | 24.1 | 0.00 | 0.00 | 0.00 | 6 | 1006.5 |
| 20260506160154 | 18 | 67 | 12.9 | 19.3 | 0.00 | 0.00 | 0.00 | 7 | 1006.8 |
| 20260506155703 | 18 | 67 | 9.7 | 16.1 | 0.00 | 0.00 | 0.00 | 7 | 1006.8 |
| 20260506155659 | 18 | 67 | 9.7 | 16.1 | 0.00 | 0.00 | 0.00 | 7 | 1006.8 |
| 20260506155525 | 18 | 67 | 9.7 | 16.1 | 0.00 | 0.00 | 0.00 | 7 | 1006.8 |
| 20260506155035 | 18 | 90 | 9.7 | 16.1 | 0.00 | 0.00 | 0.00 | 7 | 1006.9 |
| 20260506154555 | 18 | 90 | 14.5 | 19.3 | 0.00 | 0.00 | 0.00 | 7 | 1006.9 |
| 20260506154113 | 18 | 112 | 12.9 | 17.7 | 0.00 | 0.00 | 0.00 | 7 | 1006.9 |
| 20260506153641 | 18 | 135 | 12.9 | 24.1 | 0.00 | 0.00 | 0.00 | 7 | 1006.8 |
| 20260506153208 | 18 | 112 | 12.9 | 19.3 | 0.00 | 0.00 | 0.00 | 7 | 1006.7 |
| 20260506152715 | 18 | 112 | 16.1 | 20.9 | 0.00 | 0.00 | 0.00 | 7 | 1006.8 |
| 20260506152354 | 18 | 90 | 16.1 | 24.1 | 0.00 | 0.00 | 0.00 | 7 | 1006.8 |
| 20260506152008 | 18 | 135 | 16.1 | 24.1 | 0.00 | 0.00 | 0.00 | 7 | 1006.8 |
| 20260506151549 | 18 | 90 | 16.1 | 24.1 | 0.00 | 0.00 | 0.00 | 7 | 1006.9 |
| 20260506151108 | 18 | 112 | 19.3 | 30.6 | 0.00 | 0.00 | 0.00 | 7 | 1006.9 |
| 20260506150651 | 18 | 90 | 16.1 | 24.1 | 0.00 | 0.00 | 0.00 | 7 | 1006.8 |
| 20260506150620 | 18 | 90 | 16.1 | 24.1 | 0.00 | 0.00 | 0.00 | 7 | 1006.8 |
| 20260506150155 | 18 | 67 | 14.5 | 19.3 | 0.00 | 0.00 | 0.00 | 7 | 1006.9 |
| 20260506145701 | 18 | 67 | 19.3 | 24.1 | 0.00 | 0.00 | 0.00 | 7 | 1006.8 |
| 20260506145525 | 18 | 67 | 19.3 | 24.1 | 0.00 | 0.00 | 0.00 | 7 | 1006.8 |
| 20260506145507 | 19 | 112 | 16.1 | 20.9 | 0.00 | 0.00 | 0.00 | 7 | 1006.9 |
| 20260506145028 | 18 | 135 | 17.7 | 24.1 | 0.00 | 0.00 | 0.00 | 7 | 1006.7 |
| 20260506144539 | 19 | 67 | 11.3 | 16.1 | 0.00 | 0.00 | 0.00 | 7 | 1006.6 |
| 20260506144122 | 19 | 112 | 12.9 | 20.9 | 0.00 | 0.00 | 0.00 | 7 | 1006.8 |
| 20260506143621 | 19 | 45 | 16.1 | 24.1 | 0.00 | 0.00 | 0.00 | 6 | 1007.0 |
| 20260506143550 | 18 | 90 | 19.3 | 29.0 | 0.00 | 0.00 | 0.00 | 7 | 1007.0 |
| 20260506143131 | 18 | 112 | 17.7 | 24.1 | 0.00 | 0.00 | 0.00 | 7 | 1007.2 |
| 20260506142722 | 19 | 67 | 11.3 | 17.7 | 0.00 | 0.00 | 0.00 | 7 | 1007.1 |
| 20260506142719 | 19 | 67 | 11.3 | 17.7 | 0.00 | 0.00 | 0.00 | 7 | 1007.1 |
| 20260506142251 | 19 | 90 | 14.5 | 24.1 | 0.00 | 0.00 | 0.00 | 7 | 1007.2 |
| 20260506141801 | 19 | 112 | 16.1 | 24.1 | 0.00 | 0.00 | 0.00 | 7 | 1007.2 |
| 20260506141347 | 18 | 112 | 16.1 | 20.9 | 0.00 | 0.00 | 0.00 | 7 | 1007.2 |
| 20260506140941 | 19 | 90 | 14.5 | 27.4 | 0.00 | 0.00 | 0.00 | 7 | 1007.4 |
| 20260506140541 | 19 | 90 | 17.7 | 24.1 | 0.00 | 0.00 | 0.00 | 7 | 1007.3 |
| 20260506140116 | 18 | 90 | 14.5 | 17.7 | 0.00 | 0.00 | 0.00 | 7 | 1007.4 |
| 20260506135703 | 19 | 45 | 14.5 | 24.1 | 0.00 | 0.00 | 0.00 | 7 | 1007.4 |
| 20260506135525 | 19 | 45 | 14.5 | 24.1 | 0.00 | 0.00 | 0.00 | 7 | 1007.4 |
| 20260506135415 | 19 | 90 | 12.9 | 19.3 | 0.00 | 0.00 | 0.00 | 7 | 1007.2 |
| 20260506134956 | 18 | 157 | 17.7 | 24.1 | 0.00 | 0.00 | 0.00 | 6 | 1007.5 |
| 20260506134537 | 19 | 90 | 16.1 | 29.0 | 0.00 | 0.00 | 0.00 | 6 | 1007.4 |
| 20260506134053 | 19 | 90 | 19.3 | 24.1 | 0.00 | 0.00 | 0.00 | 6 | 1007.4 |
| 20260506133636 | 19 | 112 | 20.9 | 35.4 | 0.00 | 0.00 | 0.00 | 7 | 1007.5 |
| 20260506133211 | 19 | 90 | 17.7 | 24.1 | 0.00 | 0.00 | 0.00 | 7 | 1007.4 |
| 20260506132720 | 19 | 112 | 16.1 | 19.3 | 0.00 | 0.00 | 0.00 | 7 | 1007.5 |
| 20260506132716 | 19 | 112 | 16.1 | 19.3 | 0.00 | 0.00 | 0.00 | 7 | 1007.5 |
| 20260506132351 | 19 | 112 | 16.1 | 24.1 | 0.00 | 0.00 | 0.00 | 7 | 1007.5 |
| 20260506131903 | 20 | 112 | 20.9 | 29.0 | 0.00 | 0.00 | 0.00 | 7 | 1007.5 |
| 20260506131452 | 19 | 112 | 14.5 | 19.3 | 0.00 | 0.00 | 0.00 | 7 | 1007.3 |
| 20260506131409 | 19 | 135 | 19.3 | 24.1 | 0.00 | 0.00 | 0.00 | 7 | 1007.5 |
| 20260506131017 | 20 | 135 | 17.7 | 27.4 | 0.00 | 0.00 | 0.00 | 6 | 1007.4 |
| 20260506130540 | 19 | 90 | 25.7 | 35.4 | 0.00 | 0.00 | 0.00 | 7 | 1007.6 |
| 20260506130116 | 20 | 90 | 20.9 | 35.4 | 0.00 | 0.00 | 0.00 | 7 | 1007.5 |
| 20260506125707 | 20 | 112 | 14.5 | 24.1 | 0.00 | 0.00 | 0.00 | 6 | 1007.4 |
| 20260506125429 | 20 | 112 | 14.5 | 24.1 | 0.00 | 0.00 | 0.00 | 6 | 1007.6 |
| 20260506124958 | 20 | 112 | 16.1 | 29.0 | 0.00 | 0.00 | 0.00 | 6 | 1007.6 |
| 20260506124651 | 20 | 90 | 16.1 | 24.1 | 0.00 | 0.00 | 0.00 | 6 | 1007.6 |
| 20260506124508 | 20 | 67 | 16.1 | 24.1 | 0.00 | 0.00 | 0.00 | 6 | 1007.6 |
| 20260506124035 | 19 | 67 | 14.5 | 20.9 | 0.00 | 0.00 | 0.00 | 6 | 1007.4 |
| 20260506123618 | 20 | 67 | 19.3 | 24.1 | 0.00 | 0.00 | 0.00 | 6 | 1007.6 |
| 20260506123153 | 20 | 135 | 14.5 | 20.9 | 0.00 | 0.00 | 0.00 | 6 | 1007.5 |
| 20260506122702 | 20 | 90 | 17.7 | 29.0 | 0.00 | 0.00 | 0.00 | 6 | 1007.7 |
| 20260506122658 | 20 | 90 | 17.7 | 29.0 | 0.00 | 0.00 | 0.00 | 6 | 1007.7 |
| 20260506122420 | 20 | 112 | 12.9 | 17.7 | 0.00 | 0.00 | 0.00 | 6 | 1007.6 |
| 20260506121954 | 19 | 90 | 14.5 | 20.9 | 0.00 | 0.00 | 0.00 | 6 | 1007.7 |
| 20260506121524 | 20 | 90 | 17.7 | 24.1 | 0.00 | 0.00 | 0.00 | 6 | 1007.7 |
| 20260506121114 | 20 | 90 | 11.3 | 16.1 | 0.00 | 0.00 | 0.00 | 6 | 1007.6 |
| 20260506120639 | 20 | 135 | 16.1 | 24.1 | 0.00 | 0.00 | 0.00 | 6 | 1007.9 |
| 20260506120203 | 20 | 90 | 16.1 | 20.9 | 0.00 | 0.00 | 0.00 | 6 | 1007.9 |
| 20260506120155 | 20 | 90 | 16.1 | 20.9 | 0.00 | 0.00 | 0.00 | 6 | 1007.9 |
| 20260506115739 | 20 | 90 | 16.1 | 20.9 | 0.00 | 0.00 | 0.00 | 6 | 1007.9 |
| 20260506115328 | 18 | 90 | 12.9 | 17.7 | 0.00 | 0.00 | 0.00 | 6 | 1008.5 |
| 20260506114939 | 18 | 90 | 12.9 | 17.7 | 0.00 | 0.00 | 0.00 | 6 | 1008.5 |
| 20260506114514 | 18 | 90 | 12.9 | 17.7 | 0.00 | 0.00 | 0.00 | 6 | 1008.5 |
| 20260506114109 | 18 | 90 | 12.9 | 17.7 | 0.00 | 0.00 | 0.00 | 6 | 1008.5 |
| 20260506113723 | 18 | 90 | 12.9 | 17.7 | 0.00 | 0.00 | 0.00 | 6 | 1008.5 |
| 20260506113649 | 18 | 90 | 12.9 | 17.7 | 0.00 | 0.00 | 0.00 | 6 | 1008.5 |
| 20260506113224 | 18 | 90 | 12.9 | 17.7 | 0.00 | 0.00 | 0.00 | 6 | 1008.5 |
| 20260506112729 | 18 | 90 | 12.9 | 17.7 | 0.00 | 0.00 | 0.00 | 6 | 1008.5 |
| 20260506112354 | 18 | 90 | 12.9 | 17.7 | 0.00 | 0.00 | 0.00 | 6 | 1008.5 |
| 20260506111934 | 18 | 90 | 12.9 | 17.7 | 0.00 | 0.00 | 0.00 | 6 | 1008.5 |
| 20260506111516 | 18 | 90 | 12.9 | 17.7 | 0.00 | 0.00 | 0.00 | 6 | 1008.5 |
| 20260506111031 | 18 | 90 | 12.9 | 17.7 | 0.00 | 0.00 | 0.00 | 6 | 1008.5 |
| 20260506110653 | 18 | 90 | 12.9 | 17.7 | 0.00 | 0.00 | 0.00 | 6 | 1008.5 |
| 20260506110615 | 18 | 90 | 12.9 | 17.7 | 0.00 | 0.00 | 0.00 | 6 | 1008.5 |
| 20260506110150 | 18 | 90 | 12.9 | 17.7 | 0.00 | 0.00 | 0.00 | 6 | 1008.5 |
| 20260506105658 | 18 | 90 | 12.9 | 17.7 | 0.00 | 0.00 | 0.00 | 6 | 1008.5 |
| 20260506105655 | 18 | 90 | 12.9 | 17.7 | 0.00 | 0.00 | 0.00 | 6 | 1008.5 |
| 20260506105413 | 18 | 112 | 9.7 | 14.5 | 0.00 | 0.00 | 0.00 | 6 | 1008.2 |
| 20260506105257 | 18 | 112 | 9.7 | 14.5 | 0.00 | 0.00 | 0.00 | 6 | 1008.5 |
| 20260506105012 | 18 | 112 | 9.7 | 12.9 | 0.00 | 0.00 | 0.00 | 6 | 1008.4 |
| 20260506104555 | 19 | 67 | 6.4 | 9.7 | 0.00 | 0.00 | 0.00 | 6 | 1008.4 |
| 20260506104416 | 19 | 90 | 8.0 | 12.9 | 0.00 | 0.00 | 0.00 | 6 | 1008.3 |
| 20260506104103 | 19 | 67 | 9.7 | 12.9 | 0.00 | 0.00 | 0.00 | 6 | 1008.3 |
| 20260506103612 | 19 | 67 | 9.7 | 16.1 | 0.00 | 0.00 | 0.00 | 7 | 1008.3 |
| 20260506103542 | 18 | 112 | 12.9 | 16.1 | 0.00 | 0.00 | 0.00 | 6 | 1008.4 |
| 20260506103125 | 18 | 112 | 9.7 | 12.9 | 0.00 | 0.00 | 0.00 | 6 | 1008.5 |
| 20260506102711 | 19 | 90 | 8.0 | 9.7 | 0.00 | 0.00 | 0.00 | 6 | 1008.3 |
| 20260506102351 | 19 | 90 | 9.7 | 14.5 | 0.00 | 0.00 | 0.00 | 6 | 1008.5 |
| 20260506102310 | 19 | 67 | 6.4 | 9.7 | 0.00 | 0.00 | 0.00 | 7 | 1008.5 |
| 20260506101917 | 19 | 90 | 4.8 | 9.7 | 0.00 | 0.00 | 0.00 | 7 | 1008.5 |
| 20260506101441 | 18 | 90 | 4.8 | 9.7 | 0.00 | 0.00 | 0.00 | 7 | 1008.6 |
| 20260506101009 | 18 | 90 | 4.8 | 6.4 | 0.00 | 0.00 | 0.00 | 7 | 1008.6 |
| 20260506100529 | 18 | 112 | 4.8 | 4.8 | 0.00 | 0.00 | 0.00 | 7 | 1008.5 |
| 20260506100116 | 18 | 90 | 6.4 | 14.5 | 0.00 | 0.00 | 0.00 | 6 | 1008.7 |
| 20260506095712 | 18 | 112 | 8.0 | 12.9 | 0.00 | 0.00 | 0.00 | 6 | 1008.6 |
| 20260506095708 | 18 | 112 | 8.0 | 12.9 | 0.00 | 0.00 | 0.00 | 6 | 1008.6 |
| 20260506095425 | 18 | 67 | 6.4 | 9.7 | 0.00 | 0.00 | 0.00 | 7 | 1008.6 |
| 20260506095006 | 18 | 112 | 9.7 | 12.9 | 0.00 | 0.00 | 0.00 | 6 | 1008.6 |
| 20260506094551 | 19 | 112 | 8.0 | 9.7 | 0.00 | 0.00 | 0.00 | 6 | 1008.5 |
| 20260506094517 | 19 | 112 | 8.0 | 9.7 | 0.00 | 0.00 | 0.00 | 6 | 1008.5 |
| 20260506094047 | 18 | 112 | 6.4 | 12.9 | 0.00 | 0.00 | 0.00 | 7 | 1008.5 |
| 20260506093705 | 18 | 67 | 9.7 | 14.5 | 0.00 | 0.00 | 0.00 | 7 | 1008.4 |
| 20260506093629 | 18 | 112 | 9.7 | 14.5 | 0.00 | 0.00 | 0.00 | 7 | 1008.6 |
| 20260506093204 | 18 | 112 | 9.7 | 14.5 | 0.00 | 0.00 | 0.00 | 6 | 1008.5 |
| 20260506092713 | 18 | 90 | 8.0 | 9.7 | 0.00 | 0.00 | 0.00 | 6 | 1008.5 |
| 20260506092709 | 18 | 90 | 8.0 | 9.7 | 0.00 | 0.00 | 0.00 | 6 | 1008.5 |
| 20260506092352 | 18 | 112 | 9.7 | 14.5 | 0.00 | 0.00 | 0.00 | 7 | 1008.3 |
| 20260506091934 | 18 | 112 | 9.7 | 14.5 | 0.00 | 0.00 | 0.00 | 6 | 1008.4 |
| 20260506091647 | 18 | 67 | 6.4 | 9.7 | 0.00 | 0.00 | 0.00 | 6 | 1008.4 |
| 20260506091514 | 18 | 112 | 4.8 | 12.9 | 0.00 | 0.00 | 0.00 | 6 | 1008.4 |
| 20260506091031 | 17 | 112 | 11.3 | 14.5 | 0.00 | 0.00 | 0.00 | 7 | 1008.3 |
| 20260506090647 | 18 | 90 | 9.7 | 16.1 | 0.00 | 0.00 | 0.00 | 6 | 1008.4 |
| 20260506090614 | 18 | 90 | 9.7 | 16.1 | 0.00 | 0.00 | 0.00 | 6 | 1008.4 |
| 20260506090149 | 18 | 90 | 9.7 | 14.5 | 0.00 | 0.00 | 0.00 | 6 | 1008.3 |
| 20260506085657 | 18 | 90 | 11.3 | 14.5 | 0.00 | 0.00 | 0.00 | 7 | 1008.3 |
| 20260506085654 | 18 | 90 | 11.3 | 14.5 | 0.00 | 0.00 | 0.00 | 7 | 1008.3 |
| 20260506085547 | 18 | 90 | 11.3 | 14.5 | 0.00 | 0.00 | 0.00 | 7 | 1008.3 |
| 20260506085459 | 18 | 112 | 16.1 | 20.9 | 0.00 | 0.00 | 0.00 | 7 | 1008.1 |
| 20260506085014 | 18 | 112 | 9.7 | 14.5 | 0.00 | 0.00 | 0.00 | 7 | 1008.3 |
| 20260506084638 | 18 | 90 | 9.7 | 14.5 | 0.00 | 0.00 | 0.00 | 7 | 1008.2 |
| 20260506084537 | 18 | 157 | 9.7 | 17.7 | 0.00 | 0.00 | 0.00 | 7 | 1008.2 |
| 20260506084052 | 17 | 112 | 9.7 | 12.9 | 0.00 | 0.00 | 0.00 | 7 | 1008.2 |
| 20260506083634 | 18 | 135 | 9.7 | 14.5 | 0.00 | 0.00 | 0.00 | 7 | 1008.3 |
| 20260506083209 | 18 | 112 | 9.7 | 12.9 | 0.00 | 0.00 | 0.00 | 7 | 1008.2 |
| 20260506082715 | 17 | 67 | 4.8 | 6.4 | 0.00 | 0.00 | 0.00 | 7 | 1008.3 |
| 20260506082450 | 17 | 67 | 4.8 | 6.4 | 0.00 | 0.00 | 0.00 | 7 | 1008.2 |
| 20260506082013 | 17 | 90 | 6.4 | 9.7 | 0.00 | 0.00 | 0.00 | 7 | 1008.2 |
| 20260506081525 | 17 | 67 | 11.3 | 16.1 | 0.00 | 0.00 | 0.00 | 7 | 1008.2 |
| 20260506081107 | 18 | 112 | 14.5 | 17.7 | 0.00 | 0.00 | 0.00 | 7 | 1008.2 |
| 20260506080607 | 18 | 90 | 6.4 | 9.7 | 0.00 | 0.00 | 0.00 | 7 | 1008.1 |
| 20260506080535 | 18 | 90 | 6.4 | 9.7 | 0.00 | 0.00 | 0.00 | 7 | 1008.1 |
| 20260506080117 | 18 | 90 | 12.9 | 16.1 | 0.00 | 0.00 | 0.00 | 7 | 1008.1 |
| 20260506073131 | 18 | 112 | 11.3 | 14.5 | 0.00 | 0.00 | 0.00 | 7 | 1008.1 |
| 20260506072723 | 18 | 90 | 4.8 | 6.4 | 0.00 | 0.00 | 0.00 | 7 | 1008.2 |
| 20260506072720 | 18 | 90 | 4.8 | 6.4 | 0.00 | 0.00 | 0.00 | 7 | 1008.2 |
| 20260506072433 | 18 | 90 | 4.8 | 6.4 | 0.00 | 0.00 | 0.00 | 7 | 1008.1 |
| 20260506072001 | 18 | 135 | 3.2 | 6.4 | 0.00 | 0.00 | 0.00 | 7 | 1008.1 |
| 20260506071610 | 18 | 112 | 4.8 | 9.7 | 0.00 | 0.00 | 0.00 | 7 | 1008.1 |
| 20260506071520 | 18 | 112 | 4.8 | 9.7 | 0.00 | 0.00 | 0.00 | 7 | 1008.1 |
| 20260506071118 | 17 | 112 | 6.4 | 9.7 | 0.00 | 0.00 | 0.00 | 7 | 1008.2 |
| 20260506070652 | 17 | 112 | 3.2 | 6.4 | 0.00 | 0.00 | 0.00 | 7 | 1008.2 |
| 20260506070158 | 17 | 67 | 4.8 | 9.7 | 0.00 | 0.00 | 0.00 | 7 | 1008.2 |
| 20260506062441 | 15 | 315 | 0.0 | 1.6 | 0.00 | 0.00 | 0.00 | 9 | 1008.3 |
| 20260506062021 | 15 | 0 | 0.0 | 0.0 | 0.00 | 0.00 | 0.00 | 9 | 1008.2 |
| 20260506061603 | 15 | 0 | 0.0 | 0.0 | 0.00 | 0.00 | 0.00 | 9 | 1008.3 |
| 20260506061119 | 14 | 292 | 0.0 | 1.6 | 0.00 | 0.00 | 0.00 | 9 | 1008.2 |
| 20260506060736 | 13 | 292 | 1.6 | 1.6 | 0.00 | 0.00 | 0.00 | 9 | 1008.2 |
| 20260506060702 | 13 | 292 | 1.6 | 1.6 | 0.00 | 0.00 | 0.00 | 9 | 1008.2 |
| 20260506060237 | 13 | 270 | 1.6 | 3.2 | 0.00 | 0.00 | 0.00 | 9 | 1008.1 |
| 20260506051041 | 13 | 292 | 3.2 | 4.8 | 0.00 | 0.00 | 0.00 | 9 | 1007.8 |
| 20260506050616 | 13 | 292 | 3.2 | 4.8 | 0.00 | 0.00 | 0.00 | 9 | 1007.7 |
| 20260506050124 | 13 | 292 | 1.6 | 3.2 | 0.00 | 0.00 | 0.00 | 9 | 1007.9 |
| 20260506050121 | 13 | 292 | 1.6 | 3.2 | 0.00 | 0.00 | 0.00 | 9 | 1007.9 |
| 20260506044930 | 13 | 270 | 1.6 | 3.2 | 0.00 | 0.00 | 0.00 | 9 | 1007.7 |
| 20260506044501 | 13 | 270 | 3.2 | 4.8 | 0.00 | 0.00 | 0.00 | 9 | 1007.6 |
| 20260506044021 | 13 | 292 | 4.8 | 4.8 | 0.00 | 0.00 | 0.00 | 9 | 1007.8 |
| 20260506043537 | 13 | 292 | 4.8 | 4.8 | 0.00 | 0.00 | 0.00 | 9 | 1007.7 |
| 20260506043050 | -17 | 0 | 0.0 | 0.0 | 0.00 | 0.00 | 0.00 | 100 | |
| 20260506042650 | -17 | 0 | 0.0 | 0.0 | 0.00 | 0.00 | 0.00 | 100 | |
| 20260506042305 | -17 | 0 | 0.0 | 0.0 | 0.00 | 0.00 | 0.00 | 100 | |
| 20260506042218 | -17 | 0 | 0.0 | 0.0 | 0.00 | 0.00 | 0.00 | 100 | |
| 20260506041756 | -17 | 0 | 0.0 | 0.0 | 0.00 | 0.00 | 0.00 | 100 | |
| 20260506041433 | -17 | 0 | 0.0 | 0.0 | 0.00 | 0.00 | 0.00 | 100 | |
| 20260506041341 | -17 | 0 | 0.0 | 0.0 | 0.00 | 0.00 | 0.00 | 100 | |
| 20260506040936 | 13 | 292 | 3.2 | 4.8 | 0.00 | 0.00 | 0.00 | 9 | 1007.6 |
| 20260506040521 | 13 | 292 | 3.2 | 4.8 | 0.00 | 0.00 | 0.00 | 9 | 1007.5 |
| 20260506040111 | 13 | 292 | 3.2 | 4.8 | 0.00 | 0.00 | 0.00 | 9 | 1007.5 |
| 20260506035702 | 13 | 292 | 1.6 | 3.2 | 0.00 | 0.00 | 0.00 | 9 | 1007.6 |
| 20260506035659 | 13 | 292 | 1.6 | 3.2 | 0.00 | 0.00 | 0.00 | 9 | 1007.6 |
| 20260506035455 | 13 | 270 | 3.2 | 3.2 | 0.00 | 0.00 | 0.00 | 9 | 1007.7 |
| 20260506035405 | 13 | 270 | 1.6 | 3.2 | 0.00 | 0.00 | 0.00 | 9 | 1007.7 |
| 20260506035002 | 13 | 270 | 3.2 | 3.2 | 0.00 | 0.00 | 0.00 | 9 | 1007.5 |
| 20260506034536 | 13 | 270 | 3.2 | 4.8 | 0.00 | 0.00 | 0.00 | 9 | 1007.8 |
| 20260506034420 | 13 | 270 | 3.2 | 4.8 | 0.00 | 0.00 | 0.00 | 9 | 1007.7 |
| 20260506034103 | 13 | 270 | 3.2 | 3.2 | 0.00 | 0.00 | 0.00 | 9 | 1007.6 |
| 20260506033614 | 14 | 270 | 1.6 | 3.2 | 0.00 | 0.00 | 0.00 | 9 | 1007.7 |
| 20260506033545 | 14 | 270 | 1.6 | 1.6 | 0.00 | 0.00 | 0.00 | 9 | 1007.7 |
| 20260506033127 | 14 | 270 | 1.6 | 3.2 | 0.00 | 0.00 | 0.00 | 9 | 1007.7 |
| 20260506032713 | 14 | 247 | 1.6 | 3.2 | 0.00 | 0.00 | 0.00 | 9 | 1007.7 |
| 20260506032455 | 14 | 247 | 1.6 | 3.2 | 0.00 | 0.00 | 0.00 | 9 | 1007.7 |
| 20260506032246 | 14 | 247 | 1.6 | 3.2 | 0.00 | 0.00 | 0.00 | 9 | 1007.7 |
| 20260506031752 | 14 | 270 | 3.2 | 4.8 | 0.00 | 0.00 | 0.00 | 9 | 1007.7 |
| 20260506031348 | 14 | 270 | 4.8 | 4.8 | 0.00 | 0.00 | 0.00 | 9 | 1007.5 |
| 20260506030946 | 14 | 270 | 4.8 | 9.7 | 0.00 | 0.00 | 0.00 | 9 | 1007.7 |
| 20260506030540 | 14 | 292 | 4.8 | 4.8 | 0.00 | 0.00 | 0.00 | 9 | 1007.6 |
| 20260506030121 | 14 | 270 | 4.8 | 6.4 | 0.00 | 0.00 | 0.00 | 9 | 1007.6 |
| 20260506025711 | 14 | 292 | 4.8 | 6.4 | 0.00 | 0.00 | 0.00 | 9 | 1007.5 |
| 20260506025447 | 14 | 270 | 3.2 | 4.8 | 0.00 | 0.00 | 0.00 | 9 | 1007.6 |
| 20260506025406 | 14 | 292 | 3.2 | 4.8 | 0.00 | 0.00 | 0.00 | 9 | 1007.7 |
| 20260506025022 | 14 | 315 | 3.2 | 4.8 | 0.00 | 0.00 | 0.00 | 9 | 1007.7 |
| 20260506024537 | 14 | 315 | 4.8 | 6.4 | 0.00 | 0.00 | 0.00 | 9 | 1007.5 |
| 20260506024421 | 14 | 292 | 4.8 | 6.4 | 0.00 | 0.00 | 0.00 | 9 | 1007.6 |
| 20260506024103 | 14 | 292 | 4.8 | 4.8 | 0.00 | 0.00 | 0.00 | 9 | 1007.6 |
| 20260506023615 | 14 | 315 | 4.8 | 6.4 | 0.00 | 0.00 | 0.00 | 9 | 1007.6 |
| 20260506023544 | 14 | 315 | 4.8 | 6.4 | 0.00 | 0.00 | 0.00 | 9 | 1007.7 |
| 20260506023127 | 15 | 292 | 4.8 | 6.4 | 0.00 | 0.00 | 0.00 | 9 | 1007.6 |
| 20260506022721 | 15 | 292 | 3.2 | 4.8 | 0.00 | 0.00 | 0.00 | 8 | 1007.6 |
| 20260506022718 | 15 | 292 | 3.2 | 4.8 | 0.00 | 0.00 | 0.00 | 8 | 1007.6 |
| 20260506022436 | 15 | 270 | 4.8 | 4.8 | 0.00 | 0.00 | 0.00 | 8 | 1007.6 |
| 20260506021954 | 15 | 292 | 4.8 | 6.4 | 0.00 | 0.00 | 0.00 | 8 | 1007.6 |
| 20260506021501 | 15 | 292 | 4.8 | 4.8 | 0.00 | 0.00 | 0.00 | 8 | 1007.6 |
| 20260506021035 | 15 | 315 | 4.8 | 4.8 | 0.00 | 0.00 | 0.00 | 8 | 1007.4 |
| 20260506020650 | 15 | 315 | 4.8 | 6.4 | 0.00 | 0.00 | 0.00 | 8 | 1007.7 |
| 20260506020616 | 15 | 315 | 4.8 | 6.4 | 0.00 | 0.00 | 0.00 | 8 | 1007.7 |
| 20260506020151 | 15 | 292 | 4.8 | 4.8 | 0.00 | 0.00 | 0.00 | 8 | 1007.6 |
| 20260506015659 | 15 | 292 | 3.2 | 3.2 | 0.00 | 0.00 | 0.00 | 8 | 1007.5 |
| 20260506015656 | 15 | 292 | 3.2 | 3.2 | 0.00 | 0.00 | 0.00 | 8 | 1007.5 |
| 20260506015525 | 15 | 292 | 3.2 | 3.2 | 0.00 | 0.00 | 0.00 | 8 | 1007.5 |
| 20260506015406 | 15 | 292 | 4.8 | 6.4 | 0.00 | 0.00 | 0.00 | 8 | 1007.5 |
| 20260506014942 | 15 | 315 | 4.8 | 9.7 | 0.00 | 0.00 | 0.00 | 8 | 1007.6 |
| 20260506014625 | 15 | 292 | 4.8 | 6.4 | 0.00 | 0.00 | 0.00 | 9 | 1007.7 |
| 20260506014500 | 15 | 292 | 3.2 | 4.8 | 0.00 | 0.00 | 0.00 | 9 | 1007.6 |
| 20260506014034 | 15 | 270 | 4.8 | 4.8 | 0.00 | 0.00 | 0.00 | 9 | 1007.7 |
| 20260506013709 | 15 | 292 | 3.2 | 4.8 | 0.00 | 0.00 | 0.00 | 8 | 1007.6 |
| 20260506013622 | 15 | 270 | 3.2 | 4.8 | 0.00 | 0.00 | 0.00 | 8 | 1007.6 |
| 20260506013214 | 15 | 270 | 3.2 | 3.2 | 0.00 | 0.00 | 0.00 | 8 | 1007.6 |
| 20260506012725 | 15 | 270 | 3.2 | 3.2 | 0.00 | 0.00 | 0.00 | 8 | 1007.5 |
| 20260506012722 | 15 | 270 | 3.2 | 3.2 | 0.00 | 0.00 | 0.00 | 8 | 1007.5 |
| 20260506012440 | 15 | 292 | 3.2 | 4.8 | 0.00 | 0.00 | 0.00 | 8 | 1007.5 |
| 20260506012015 | 16 | 292 | 3.2 | 4.8 | 0.00 | 0.00 | 0.00 | 8 | 1007.6 |
| 20260506011534 | 16 | 292 | 3.2 | 3.2 | 0.00 | 0.00 | 0.00 | 8 | 1007.8 |
| 20260506011403 | 16 | 292 | 1.6 | 3.2 | 0.00 | 0.00 | 0.00 | 8 | 1007.5 |
| 20260506011057 | 16 | 292 | 1.6 | 3.2 | 0.00 | 0.00 | 0.00 | 8 | 1007.7 |
| 20260506010608 | 16 | 292 | 1.6 | 3.2 | 0.00 | 0.00 | 0.00 | 8 | 1007.6 |
| 20260506010537 | 16 | 292 | 1.6 | 3.2 | 0.00 | 0.00 | 0.00 | 8 | 1007.6 |
| 20260506010120 | 16 | 292 | 3.2 | 3.2 | 0.00 | 0.00 | 0.00 | 8 | 1007.5 |
| 20260506005714 | 16 | 270 | 3.2 | 3.2 | 0.00 | 0.00 | 0.00 | 8 | 1007.8 |
| 20260506005711 | 16 | 270 | 3.2 | 3.2 | 0.00 | 0.00 | 0.00 | 8 | 1007.8 |
| 20260506005355 | 16 | 292 | 4.8 | 4.8 | 0.00 | 0.00 | 0.00 | 8 | 1007.7 |
| 20260506004917 | 16 | 270 | 4.8 | 4.8 | 0.00 | 0.00 | 0.00 | 8 | 1007.7 |
| 20260506004512 | 16 | 270 | 4.8 | 4.8 | 0.00 | 0.00 | 0.00 | 8 | 1007.7 |
| 20260506004022 | 16 | 270 | 3.2 | 4.8 | 0.00 | 0.00 | 0.00 | 8 | 1007.9 |
| 20260506003603 | 16 | 292 | 3.2 | 4.8 | 0.00 | 0.00 | 0.00 | 8 | 1007.8 |
| 20260506003132 | 17 | 270 | 1.6 | 3.2 | 0.00 | 0.00 | 0.00 | 8 | 1007.9 |
| 20260506002722 | 17 | 0 | 0.0 | 0.0 | 0.00 | 0.00 | 0.00 | 8 | 1007.8 |
| 20260506002308 | 16 | 0 | 0.0 | 0.0 | 0.00 | 0.00 | 0.00 | 8 | 1007.8 |
| 20260506002224 | 16 | 0 | 0.0 | 0.0 | 0.00 | 0.00 | 0.00 | 8 | 1007.8 |
| 20260506001854 | 17 | 0 | 0.0 | 0.0 | 0.00 | 0.00 | 0.00 | 8 | 1008.0 |
| 20260506001401 | 17 | 90 | 1.6 | 6.4 | 0.00 | 0.00 | 0.00 | 8 | 1007.9 |
| 20260506000954 | 17 | 0 | 0.0 | 0.0 | 0.00 | 0.00 | 0.00 | 8 | 1007.8 |
| 20260506000528 | 17 | 0 | 0.0 | 1.6 | 0.00 | 0.00 | 0.00 | 8 | 1007.9 |
| 20260506000114 | 17 | 270 | 0.0 | 9.7 | 0.00 | 0.00 | 0.00 | 8 | 1008.0 |
| 20260505235704 | 17 | 270 | 0.0 | 3.2 | 0.00 | 0.00 | 0.00 | 8 | 1007.9 |
| 20260505235559 | 17 | 270 | 0.0 | 3.2 | 0.00 | 0.00 | 0.00 | 8 | 1007.9 |
| 20260505235100 | 17 | 0 | 0.0 | 0.0 | 0.00 | 0.00 | 0.00 | 8 | 1008.1 |
| 20260505234614 | 17 | 135 | 4.8 | 9.7 | 0.00 | 0.00 | 0.00 | 8 | 1008.1 |
| 20260505234129 | 17 | 112 | 3.2 | 3.2 | 0.00 | 0.00 | 0.00 | 8 | 1008.0 |
| 20260505233639 | 16 | 112 | 3.2 | 4.8 | 0.00 | 0.00 | 0.00 | 8 | 1008.0 |
| 20260505233209 | 16 | 270 | 3.2 | 4.8 | 0.00 | 0.00 | 0.00 | 8 | 1008.0 |
| 20260505232722 | 16 | 0 | 0.0 | 0.0 | 0.00 | 0.00 | 0.00 | 8 | 1008.0 |
| 20260505232719 | 16 | 0 | 0.0 | 0.0 | 0.00 | 0.00 | 0.00 | 8 | 1008.0 |
| 20260505232434 | 17 | 0 | 0.0 | 0.0 | 0.00 | 0.00 | 0.00 | 8 | 1007.8 |
| 20260505231943 | 17 | 0 | 0.0 | 0.0 | 0.00 | 0.00 | 0.00 | 8 | 1007.7 |
| 20260505231553 | 17 | 0 | 0.0 | 0.0 | 0.00 | 0.00 | 0.00 | 8 | 1008.0 |
| 20260505231500 | 17 | 180 | 0.0 | 1.6 | 0.00 | 0.00 | 0.00 | 8 | 1008.0 |
| 20260505231058 | 17 | 247 | 0.0 | 1.6 | 0.00 | 0.00 | 0.00 | 8 | 1008.0 |
| 20260505230633 | 17 | 67 | 6.4 | 12.9 | 0.00 | 0.00 | 0.00 | 8 | 1007.8 |
| 20260505230140 | 17 | 90 | 3.2 | 4.8 | 0.00 | 0.00 | 0.00 | 8 | 1007.9 |
| 20260505225644 | 17 | 90 | 1.6 | 4.8 | 0.00 | 0.00 | 0.00 | 8 | 1007.9 |
| 20260505225456 | 17 | 67 | 4.8 | 6.4 | 0.00 | 0.00 | 0.00 | 8 | 1007.9 |
| 20260505225011 | 17 | 337 | 1.6 | 9.7 | 0.00 | 0.00 | 0.00 | 8 | 1007.9 |
| 20260505224521 | 17 | 112 | 4.8 | 9.7 | 0.00 | 0.00 | 0.00 | 8 | 1007.8 |
| 20260505224458 | 17 | 90 | 1.6 | 9.7 | 0.00 | 0.00 | 0.00 | 8 | 1007.8 |
| 20260505224051 | 17 | 292 | 8.0 | 9.7 | 0.00 | 0.00 | 0.00 | 8 | 1007.8 |
| 20260505223558 | 17 | 292 | 1.6 | 3.2 | 0.00 | 0.00 | 0.00 | 8 | 1007.8 |
| 20260505223539 | 17 | 22 | 4.8 | 9.7 | 0.00 | 0.00 | 0.00 | 8 | 1007.9 |
| 20260505223131 | 17 | 90 | 3.2 | 9.7 | 0.00 | 0.00 | 0.00 | 8 | 1007.8 |
| 20260505222724 | 17 | 67 | 0.0 | 3.2 | 0.00 | 0.00 | 0.00 | 8 | 1007.7 |
| 20260505222721 | 17 | 67 | 0.0 | 3.2 | 0.00 | 0.00 | 0.00 | 8 | 1007.7 |
| 20260505222602 | 17 | 67 | 0.0 | 3.2 | 0.00 | 0.00 | 0.00 | 8 | 1007.9 |
| 20260505222348 | 17 | 112 | 4.8 | 9.7 | 0.00 | 0.00 | 0.00 | 8 | 1007.8 |
| 20260505221932 | 17 | 67 | 1.6 | 4.8 | 0.00 | 0.00 | 0.00 | 8 | 1007.7 |
| 20260505221608 | 17 | 337 | 0.0 | 4.8 | 0.00 | 0.00 | 0.00 | 8 | 1007.8 |
| 20260505221521 | 17 | 337 | 0.0 | 4.8 | 0.00 | 0.00 | 0.00 | 8 | 1007.8 |
| 20260505221035 | 17 | 292 | 9.7 | 12.9 | 0.00 | 0.00 | 0.00 | 8 | 1007.6 |
| 20260505220618 | 17 | 45 | 4.8 | 6.4 | 0.00 | 0.00 | 0.00 | 8 | 1007.5 |
| 20260505220153 | 17 | 45 | 4.8 | 9.7 | 0.00 | 0.00 | 0.00 | 8 | 1007.5 |
| 20260505215704 | 17 | 90 | 11.3 | 16.1 | 0.00 | 0.00 | 0.00 | 8 | 1007.6 |
| 20260505215702 | 17 | 90 | 11.3 | 16.1 | 0.00 | 0.00 | 0.00 | 8 | 1007.6 |
| 20260505215404 | 17 | 90 | 11.3 | 17.7 | 0.00 | 0.00 | 0.00 | 8 | 1007.6 |
| 20260505215306 | 17 | 67 | 8.0 | 9.7 | 0.00 | 0.00 | 0.00 | 8 | 1007.6 |
| 20260505214914 | 17 | 90 | 6.4 | 9.7 | 0.00 | 0.00 | 0.00 | 8 | 1007.5 |
| 20260505214503 | 18 | 67 | 8.0 | 12.9 | 0.00 | 0.00 | 0.00 | 8 | 1007.4 |
| 20260505214411 | 18 | 67 | 8.0 | 12.9 | 0.00 | 0.00 | 0.00 | 8 | 1007.4 |
| 20260505214030 | 18 | 67 | 8.0 | 16.1 | 0.00 | 0.00 | 0.00 | 8 | 1007.3 |
| 20260505213543 | 18 | 67 | 6.4 | 14.5 | 0.00 | 0.00 | 0.00 | 8 | 1007.2 |
| 20260505213129 | 18 | 22 | 8.0 | 12.9 | 0.00 | 0.00 | 0.00 | 8 | 1007.1 |
| 20260505212719 | 18 | 315 | 8.0 | 14.5 | 0.00 | 0.00 | 0.00 | 7 | 1007.0 |
| 20260505212717 | 18 | 315 | 8.0 | 14.5 | 0.00 | 0.00 | 0.00 | 7 | 1007.0 |
| 20260505212420 | 18 | 337 | 6.4 | 12.9 | 0.00 | 0.00 | 0.00 | 7 | 1006.9 |
| 20260505212348 | 18 | 337 | 6.4 | 12.9 | 0.00 | 0.00 | 0.00 | 7 | 1006.9 |
| 20260505211933 | 17 | 337 | 6.4 | 9.7 | 0.00 | 0.00 | 0.00 | 7 | 1006.9 |
| 20260505211521 | 17 | 292 | 8.0 | 9.7 | 0.00 | 0.00 | 0.00 | 6 | 1006.8 |
| 20260505211035 | 18 | 315 | 8.0 | 9.7 | 0.00 | 0.00 | 0.00 | 6 | 1006.8 |
| 20260505210655 | 18 | 292 | 8.0 | 9.7 | 0.00 | 0.00 | 0.00 | 6 | 1006.5 |
| 20260505210618 | 18 | 292 | 8.0 | 9.7 | 0.00 | 0.00 | 0.00 | 6 | 1006.5 |
| 20260505210154 | 18 | 315 | 4.8 | 6.4 | 0.00 | 0.00 | 0.00 | 6 | 1006.6 |
| 20260505205702 | 19 | 292 | 4.8 | 6.4 | 0.00 | 0.00 | 0.00 | 6 | 1006.4 |
| 20260505205658 | 19 | 292 | 4.8 | 6.4 | 0.00 | 0.00 | 0.00 | 6 | 1006.4 |
| 20260505205448 | 20 | 292 | 6.4 | 9.7 | 0.00 | 0.00 | 0.00 | 5 | 1006.3 |
| 20260505205415 | 19 | 292 | 8.0 | 9.7 | 0.00 | 0.00 | 0.00 | 5 | 1006.6 |
| 20260505205013 | 18 | 292 | 4.8 | 6.4 | 0.00 | 0.00 | 0.00 | 6 | 1006.3 |
| 20260505204536 | 19 | 292 | 3.2 | 4.8 | 0.00 | 0.00 | 0.00 | 6 | 1006.4 |
| 20260505204049 | 18 | 292 | 3.2 | 4.8 | 0.00 | 0.00 | 0.00 | 6 | 1006.3 |
| 20260505203710 | 18 | 0 | 0.0 | 0.0 | 0.00 | 0.00 | 0.00 | 7 | 1006.2 |
| 20260505203633 | 18 | 0 | 0.0 | 0.0 | 0.00 | 0.00 | 0.00 | 7 | 1006.2 |
| 20260505203208 | 18 | 0 | 0.0 | 1.6 | 0.00 | 0.00 | 0.00 | 6 | 1006.2 |
| 20260505202716 | 19 | 0 | 0.0 | 0.0 | 0.00 | 0.00 | 0.00 | 6 | 1006.1 |
| 20260505202713 | 19 | 0 | 0.0 | 0.0 | 0.00 | 0.00 | 0.00 | 6 | 1006.1 |
| 20260505202346 | 19 | 0 | 0.0 | 0.0 | 0.00 | 0.00 | 0.00 | 6 | 1006.1 |
| 20260505201912 | 18 | 0 | 0.0 | 0.0 | 0.00 | 0.00 | 0.00 | 6 | 1006.0 |
| 20260505201653 | 18 | 0 | 0.0 | 0.0 | 0.00 | 0.00 | 0.00 | 7 | 1006.2 |
| 20260505201442 | 18 | 180 | 0.0 | 1.6 | 0.00 | 0.00 | 0.00 | 7 | 1006.0 |
| 20260505201039 | 19 | 0 | 0.0 | 0.0 | 0.00 | 0.00 | 0.00 | 7 | 1005.9 |
| 20260505200653 | 20 | 0 | 0.0 | 0.0 | 0.00 | 0.00 | 0.00 | 7 | 1005.9 |
| 20260505200619 | 20 | 0 | 0.0 | 0.0 | 0.00 | 0.00 | 0.00 | 7 | 1005.9 |
| 20260505200154 | 20 | 0 | 0.0 | 0.0 | 0.00 | 0.00 | 0.00 | 7 | 1005.8 |
| 20260505195703 | 19 | 0 | 0.0 | 0.0 | 0.00 | 0.00 | 0.00 | 7 | 1005.7 |
| 20260505195659 | 19 | 0 | 0.0 | 0.0 | 0.00 | 0.00 | 0.00 | 7 | 1005.7 |
| 20260505195410 | 19 | 0 | 0.0 | 1.6 | 0.00 | 0.00 | 0.00 | 7 | 1005.7 |
| 20260505195006 | 19 | 0 | 0.0 | 1.6 | 0.00 | 0.00 | 0.00 | 7 | 1005.6 |
| 20260505194602 | 19 | 0 | 0.0 | 0.0 | 0.00 | 0.00 | 0.00 | 7 | 1005.7 |
| 20260505194123 | 20 | 0 | 0.0 | 0.0 | 0.00 | 0.00 | 0.00 | 7 | 1005.5 |
| 20260505193636 | 19 | 0 | 0.0 | 1.6 | 0.00 | 0.00 | 0.00 | 7 | 1005.5 |
| 20260505193207 | 20 | 0 | 0.0 | 1.6 | 0.00 | 0.00 | 0.00 | 7 | 1005.3 |
| 20260505192717 | 20 | 292 | 4.8 | 4.8 | 0.00 | 0.00 | 0.00 | 7 | 1005.4 |
| 20260505192400 | 20 | 0 | 0.0 | 0.0 | 0.00 | 0.00 | 0.00 | 7 | 1005.3 |
| 20260505191940 | 20 | 0 | 0.0 | 0.0 | 0.00 | 0.00 | 0.00 | 7 | 1005.1 |
| 20260505191520 | 20 | 292 | 1.6 | 3.2 | 0.00 | 0.00 | 0.00 | 7 | 1005.1 |
| 20260505191037 | 20 | 0 | 0.0 | 0.0 | 0.00 | 0.00 | 0.00 | 6 | 1005.1 |
| 20260505190620 | 21 | 0 | 0.0 | 0.0 | 0.00 | 0.00 | 0.00 | 7 | 1004.9 |
| 20260505190155 | 20 | 0 | 0.0 | 0.0 | 0.00 | 0.00 | 0.00 | 7 | 1005.0 |
| 20260505185700 | 21 | 315 | 4.8 | 6.4 | 0.00 | 0.00 | 0.00 | 7 | 1004.9 |
| 20260505185519 | 21 | 315 | 4.8 | 6.4 | 0.00 | 0.00 | 0.00 | 7 | 1004.9 |
| 20260505185411 | 21 | 90 | 0.0 | 3.2 | 0.00 | 0.00 | 0.00 | 6 | 1004.9 |